KQ4KX Weather Reports


time (UTC)temp
C
wind
direction
speed
KPH
gust
KPH
rain 1hr
cm
rain 24hr
cm
rain mn
cm
humidity
%
barometer
mb
20260505002232 23 100 19.3 30.6 0.00 0.00 0.00 74 1015.2
20260505001702 23 102 19.3 29.0 0.00 0.00 0.00 73 1015.2
20260505000632 23 96 16.1 29.0 0.00 0.00 0.00 73 1014.9
20260505000104 23 93 16.1 29.0 0.00 0.00 0.00 72 1014.9
20260504235532 23 96 17.7 29.0 0.00 0.00 0.00 72 1014.9
20260504235032 23 100 19.3 25.7 0.00 0.00 0.00 72 1014.9
20260504234532 24 100 17.7 27.4 0.00 0.00 0.00 71 1014.9
20260504234033 24 96 19.3 30.6 0.00 0.00 0.00 72 1014.6
20260504233503 24 94 20.9 30.6 0.00 0.00 0.00 72 1014.7
20260504233002 24 99 20.9 30.6 0.00 0.00 0.00 71 1014.6
20260504232433 24 95 20.9 29.0 0.00 0.00 0.00 71 1014.7
20260504231902 24 94 19.3 32.2 0.00 0.00 0.00 71 1014.7
20260504231402 24 94 17.7 32.2 0.00 0.00 0.00 70 1014.7
20260504225832 25 100 20.9 33.8 0.00 0.00 0.00 70 1014.6
20260504224732 25 103 22.5 33.8 0.00 0.00 0.00 69 1014.6
20260504224232 25 97 19.3 33.8 0.00 0.00 0.00 69 1014.6
20260504223702 25 87 16.1 32.2 0.00 0.00 0.00 68 1014.7
20260504223202 25 86 14.5 27.4 0.00 0.00 0.00 69 1014.5
20260504222703 25 91 16.1 27.4 0.00 0.00 0.00 68 1014.5
20260504221603 25 97 19.3 29.0 0.00 0.00 0.00 69 1014.6
20260504220603 25 90 14.5 29.0 0.00 0.00 0.00 67 1014.5
20260504215032 26 93 20.9 33.8 0.00 0.00 0.00 66 1014.5
20260504214503 26 99 22.5 33.8 0.00 0.00 0.00 66 1014.5
20260504214002 26 99 20.9 32.2 0.00 0.00 0.00 66 1014.5
20260504213502 26 95 19.3 32.2 0.00 0.00 0.00 66 1014.5
20260504211933 26 97 22.5 35.4 0.00 0.00 0.00 65 1014.4
20260504205433 27 98 20.9 30.6 0.00 0.00 0.00 62 1014.6
20260504204402 27 96 22.5 37.0 0.00 0.00 0.00 62 1014.6
20260504203902 27 97 19.3 32.2 0.00 0.00 0.00 63 1014.6
20260504203401 27 93 19.3 32.2 0.00 0.00 0.00 61 1014.7
20260504202902 27 97 20.9 32.2 0.00 0.00 0.00 59 1014.7
20260504202402 28 99 19.3 32.2 0.00 0.00 0.00 60 1014.7
20260504201831 27 95 19.3 32.2 0.00 0.00 0.00 61 1014.7
20260504200831 27 98 20.9 33.8 0.00 0.00 0.00 60 1014.7
20260504200332 28 99 20.9 33.8 0.00 0.00 0.00 60 1014.8
20260504194332 28 94 17.7 30.6 0.00 0.00 0.00 59 1015.2
20260504193831 27 97 17.7 25.7 0.00 0.00 0.00 61 1015.0
20260504193331 28 104 16.1 25.7 0.00 0.00 0.00 59 1015.2
20260504192831 27 104 14.5 25.7 0.00 0.00 0.00 60 1015.0
20260504192331 27 102 14.5 22.5 0.00 0.00 0.00 61 1015.2
20260504191831 27 97 16.1 32.2 0.00 0.00 0.00 61 1015.3
20260504190803 27 91 11.3 25.7 0.00 0.00 0.00 60 1015.4
20260504190301 27 91 9.7 22.5 0.00 0.00 0.00 59 1015.3
20260504185731 27 97 11.3 24.1 0.00 0.00 0.00 59 1015.5
20260504185231 27 91 8.0 24.1 0.00 0.00 0.00 61 1015.6
20260504184731 27 83 8.0 27.4 0.00 0.00 0.00 64 1015.6
20260504184231 27 84 14.5 27.4 0.00 0.00 0.00 60 1015.8
20260504183701 28 91 14.5 27.4 0.00 0.00 0.00 57 1015.9
20260504183201 28 99 12.9 24.1 0.00 0.00 0.00 57 1016.0
20260504182701 28 94 11.3 24.1 0.00 0.00 0.00 56 1016.0
20260504182201 27 94 9.7 20.9 0.00 0.00 0.00 56 1016.1
20260504181701 27 96 11.3 24.1 0.00 0.00 0.00 59 1016.1
20260504181201 27 83 9.7 24.1 0.00 0.00 0.00 60 1016.2
20260504180701 27 87 12.9 27.4 0.00 0.00 0.00 57 1016.1
20260504180201 27 92 14.5 27.4 0.00 0.00 0.00 57 1016.3
20260504175701 27 93 11.3 24.1 0.00 0.00 0.00 59 1016.4
20260504175201 27 94 9.7 22.5 0.00 0.00 0.00 54 1016.5
20260504174701 27 93 9.7 22.5 0.00 0.00 0.00 57 1016.4
20260504174201 27 93 12.9 25.7 0.00 0.00 0.00 55 1016.4
20260504173701 27 91 14.5 25.7 0.00 0.00 0.00 55 1016.4
20260504173201 27 80 9.7 24.1 0.00 0.00 0.00 55 1016.6
20260504172701 27 70 6.4 16.1 0.00 0.00 0.00 54 1016.6
20260504172201 27 74 8.0 25.7 0.00 0.00 0.00 53 1016.7
20260504171701 27 84 11.3 25.7 0.00 0.00 0.00 53 1016.7
20260504171201 27 96 16.1 29.0 0.00 0.00 0.00 53 1016.7
20260504170631 27 100 14.5 29.0 0.00 0.00 0.00 56 1016.7
20260504170131 27 97 11.3 22.5 0.00 0.00 0.00 54 1017.0
20260504150601 25 69 9.7 22.5 0.00 0.00 0.00 62 1017.7
20260504141030 23 72 8.0 25.7 0.00 0.00 0.00 68 1017.4
20260504140530 23 70 8.0 25.7 0.00 0.00 0.00 67 1017.5
20260504110429 18 40 3.2 4.8 0.00 0.00 0.00 88 1016.2
20260504100358 17 19 1.6 4.8 0.00 0.00 0.00 90 1015.9
20260504081858 18 25 3.2 3.2 0.00 0.03 0.00 87 1015.7
20260504080259 19 18 1.6 3.2 0.00 0.05 0.00 86 1015.8
20260504045929 20 51 1.6 4.8 0.00 0.15 0.00 82 1017.2
20260504045359 20 51 3.2 4.8 0.00 0.15 0.00 82 1017.3
20260504044258 21 57 3.2 4.8 0.00 0.15 0.00 82 1017.3
20260504043259 21 55 1.6 4.8 0.00 0.15 0.00 81 1017.5
20260504041729 21 71 3.2 6.4 0.00 0.15 0.00 81 1017.6
20260504041159 21 70 3.2 9.7 0.00 0.15 0.00 80 1017.5
20260504040628 21 68 3.2 9.7 0.00 0.15 0.00 81 1017.5
20260504040129 21 73 4.8 9.7 0.00 0.15 0.00 81 1017.5
20260504035028 21 74 4.8 9.7 0.00 0.15 0.15 80 1017.5
20260504034458 21 76 4.8 9.7 0.00 0.18 0.15 80 1017.5
20260504033959 21 76 4.8 9.7 0.00 0.18 0.15 80 1017.4
20260504033428 21 75 4.8 9.7 0.00 0.18 0.15 80 1017.5
20260504032859 21 76 4.8 11.3 0.00 0.18 0.15 80 1017.3
20260504032358 21 76 4.8 11.3 0.00 0.18 0.15 80 1017.4
20260504031858 21 74 4.8 9.7 0.00 0.18 0.15 80 1017.4
20260504030259 21 76 4.8 11.3 0.00 0.20 0.15 80 1017.6
20260504025158 21 74 4.8 9.7 0.00 0.20 0.15 80 1017.4
20260504024658 21 76 4.8 9.7 0.00 0.20 0.15 81 1017.4
20260504023029 21 80 4.8 11.3 0.00 0.20 0.15 81 1017.3
20260504020929 21 83 6.4 12.9 0.00 0.20 0.15 81 1017.1
20260504020429 21 81 6.4 12.9 0.00 0.20 0.15 81 1017.0
20260504015858 21 80 6.4 16.1 0.00 0.20 0.15 80 1017.0
20260504015359 21 83 6.4 16.1 0.00 0.20 0.15 80 1016.9
20260504014858 21 85 8.0 14.5 0.00 0.20 0.15 80 1016.9
20260504012258 21 81 8.0 17.7 0.00 0.20 0.15 80 1016.7
20260504011158 22 78 6.4 17.7 0.00 0.20 0.15 79 1016.8
20260504010659 22 77 6.4 17.7 0.00 0.20 0.15 79 1016.8
20260504010129 22 77 6.4 16.1 0.00 0.20 0.15 79 1016.7
20260504005558 22 78 8.0 17.7 0.00 0.20 0.15 79 1016.6
20260504005059 22 76 6.4 16.1 0.00 0.20 0.15 78 1016.3
20260504004528 22 79 6.4 17.7 0.00 0.20 0.15 79 1016.3
20260504003458 22 78 4.8 16.1 0.00 0.20 0.15 78 1016.1
20260504002458 22 79 8.0 17.7 0.00 0.20 0.15 78 1016.1